FW0554 Weather Reports


time (UTC)temp
F
wind
direction
speed
knots
gust
knots
rain 1hr
in
rain 24hr
in
rain mn
in
humidity
%
barometer
mb
20260510183236 87 289 2.6 7.8 0.00 0.00 0.00 31 1002.0
20260510182711 86 298 1.7 6.1 0.00 0.00 0.00 32 1002.1
20260510181234 86 330 1.7 5.2 0.00 0.00 0.00 32 1002.0
20260510180234 85 270 0.9 3.5 0.00 0.00 0.00 36 1002.1
20260510175234 84 70 1.7 6.1 0.00 0.00 0.00 33 1002.1
20260510174235 85 92 1.7 6.1 0.00 0.00 0.00 33 1002.2
20260510173233 84 77 0.9 3.5 0.00 0.00 0.00 34 1002.1
20260510172230 83 125 0.9 3.5 0.00 0.00 0.00 37 1002.3
20260510171711 83 162 1.7 7.0 0.00 0.00 0.00 37 1002.4
20260510170230 84 146 0.9 6.1 0.00 0.00 0.00 36 1002.4
20260510165228 84 264 1.7 4.3 0.00 0.00 0.00 35 1002.5
20260510164714 84 274 0.0 0.9 0.00 0.00 0.00 35 1002.5
20260510163229 84 275 0.9 5.2 0.00 0.00 0.00 39 1002.4
20260510162228 82 58 0.9 3.5 0.00 0.00 0.00 39 1002.5
20260510161228 82 222 0.9 3.5 0.00 0.00 0.00 38 1002.6
20260510160226 81 95 2.6 7.8 0.00 0.00 0.00 40 1002.9
20260510155226 82 69 0.9 3.5 0.00 0.00 0.00 42 1002.7
20260510154227 82 102 1.7 5.2 0.00 0.00 0.00 42 1003.0
20260510153225 81 103 1.7 5.2 0.00 0.00 0.00 47 1002.9
20260510152226 80 97 1.7 5.2 0.00 0.00 0.00 48 1003.1
20260510151714 79 110 1.7 6.1 0.00 0.00 0.00 48 1002.9
20260510150227 79 52 0.0 4.3 0.00 0.00 0.00 50 1002.7
20260510145226 80 345 0.0 4.3 0.00 0.00 0.00 52 1002.9
20260510144227 79 358 0.0 2.6 0.00 0.00 0.00 54 1002.8
20260510143226 77 51 0.9 3.5 0.00 0.00 0.00 56 1002.9
20260510142226 77 53 0.9 3.5 0.00 0.00 0.00 57 1002.9
20260510141226 77 299 0.9 2.6 0.00 0.00 0.00 58 1002.9
20260510140226 77 314 1.7 5.2 0.00 0.00 0.00 57 1003.1
20260510135225 76 351 0.9 5.2 0.00 0.00 0.00 61 1003.1
20260510134225 75 323 1.7 6.1 0.00 0.00 0.00 60 1003.0
20260510133226 75 336 0.9 5.2 0.00 0.00 0.00 63 1003.0
20260510132226 74 309 0.9 3.5 0.00 0.00 0.00 68 1002.9
20260510131227 73 305 0.0 1.7 0.00 0.00 0.00 73 1003.1
20260510130226 72 299 0.9 2.6 0.00 0.00 0.00 75 1002.9
20260510125227 70 292 0.9 2.6 0.00 0.00 0.00 78 1002.5
20260510124233 69 297 0.0 2.6 0.00 0.00 0.00 81 1002.5
20260510123226 67 289 0.9 2.6 0.00 0.00 0.00 88 1002.5
20260510122223 65 292 0.0 0.0 0.00 0.00 0.00 93 1002.4
20260510121222 64 295 0.0 0.0 0.00 0.00 0.00 95 1002.4
20260510120221 63 295 0.0 1.7 0.00 0.00 0.00 95 1002.3
20260510115221 62 295 0.0 2.6 0.00 0.00 0.00 95 1002.2
20260510114222 62 292 0.0 0.0 0.00 0.00 0.00 95 1002.0
20260510113222 62 292 0.0 0.0 0.00 0.00 0.00 95 1001.9
20260510112219 61 292 0.0 0.0 0.00 0.00 0.00 95 1001.8
20260510111217 61 293 0.0 0.0 0.00 0.00 0.00 95 1001.5
20260510110218 60 290 0.0 0.0 0.00 0.00 0.00 95 1001.4
20260510110125 60 290 0.0 0.0 0.00 0.00 0.00 95 1001.2
20260510104213 60 290 0.0 0.0 0.00 0.00 0.00 95 1001.3
20260510103211 60 290 0.0 0.0 0.00 0.00 0.00 95 1001.1
20260510102210 59 290 0.0 0.0 0.00 0.00 0.00 94 1001.0
20260510101643 59 290 0.0 0.0 0.00 0.00 0.00 94 1000.6
20260510100204 59 290 0.0 0.0 0.00 0.00 0.00 94 1000.3
20260510095645 60 290 0.0 0.0 0.00 0.00 0.00 94 1000.3
20260510094503 60 290 0.0 0.0 0.00 0.00 0.00 94 999.8
20260510094438 60 290 0.0 0.0 0.00 0.00 0.00 94 999.8
20260510094352 60 290 0.0 0.0 0.00 0.00 0.00 94 1000.0
20260510092159 60 290 0.0 0.0 0.00 0.00 0.00 94 999.8
20260510091632 60 290 0.0 0.0 0.00 0.00 0.00 94 999.9
20260510090157 60 290 0.0 0.0 0.00 0.00 0.00 94 999.7
20260510085158 60 290 0.0 0.0 0.00 0.00 0.00 94 999.8
20260510084156 60 290 0.0 0.0 0.00 0.00 0.00 94 999.7
20260510083634 60 290 0.0 0.0 0.00 0.00 0.00 94 999.6
20260510082152 60 290 0.0 0.0 0.00 0.00 0.00 94 999.6
20260510081152 60 290 0.0 0.0 0.00 0.00 0.00 94 999.5
20260510080153 60 290 0.0 0.0 0.00 0.00 0.00 94 999.5
20260510075634 60 290 0.0 0.0 0.00 0.00 0.00 94 999.6
20260510074149 60 290 0.0 0.0 0.00 0.00 0.00 94 999.5
20260510073150 60 290 0.0 0.0 0.00 0.00 0.00 93 999.5
20260510072145 60 290 0.0 0.0 0.00 0.00 0.00 93 999.3
20260510071143 60 290 0.0 0.0 0.00 0.00 0.00 93 999.3
20260510070145 60 290 0.0 0.0 0.00 0.00 0.00 93 999.4
20260510065620 60 290 0.0 0.0 0.00 0.00 0.00 93 999.5
20260510064144 60 290 0.0 0.0 0.00 0.00 0.00 93 999.7
20260510063140 60 290 0.0 0.0 0.00 0.00 0.00 93 999.5
20260510062141 61 290 0.0 0.0 0.00 0.00 0.00 93 999.4
20260510061142 61 290 0.0 0.0 0.00 0.00 0.00 93 999.4
20260510060139 61 290 0.0 0.0 0.00 0.00 0.00 93 999.5
20260510055140 61 290 0.0 0.0 0.00 0.00 0.00 93 999.5
20260510054140 61 290 0.0 0.0 0.00 0.00 0.00 93 999.7
20260510053139 61 290 0.0 0.0 0.00 0.00 0.00 93 999.8
20260510052139 61 290 0.0 0.0 0.00 0.00 0.00 93 1000.0
20260510051146 61 290 0.0 0.0 0.00 0.00 0.00 92 1000.2
20260510050137 62 290 0.0 0.0 0.00 0.00 0.00 92 1000.0
20260510050116 62 290 0.0 1.7 0.00 0.00 0.00 92 1000.2
20260510045909 62 290 0.0 1.7 0.00 0.00 0.00 93 999.9
20260510043137 61 289 0.0 0.0 0.00 0.00 0.00 92 1000.0
20260510042136 61 289 0.0 0.0 0.00 0.00 0.00 92 1000.1
20260510041132 61 289 0.0 0.0 0.00 0.00 0.00 92 1000.0
20260510040609 62 289 0.0 0.0 0.00 0.00 0.00 91 1000.0
20260510035132 62 289 0.0 0.0 0.00 0.00 0.00 91 1000.0
20260510034131 62 289 0.0 0.0 0.00 0.00 0.00 91 999.9
20260510033132 62 289 0.0 0.0 0.00 0.00 0.00 91 999.8
20260510032131 62 289 0.0 0.0 0.00 0.00 0.00 90 999.8
20260510031131 62 289 0.0 0.0 0.00 0.00 0.00 90 999.6
20260510030131 62 289 0.0 0.0 0.00 0.00 0.00 90 999.7
20260510025629 63 289 0.0 0.0 0.00 0.00 0.00 89 999.5
20260510024621 63 289 0.0 0.0 0.00 0.00 0.00 89 999.5
20260510023129 63 289 0.0 0.0 0.00 0.00 0.00 88 999.4
20260510022621 64 289 0.0 0.0 0.00 0.00 0.00 88 999.5
20260510021130 64 289 0.0 0.0 0.00 0.00 0.00 87 999.3
20260510020127 64 289 0.0 0.0 0.00 0.00 0.00 87 999.2
20260510015127 65 289 0.0 0.0 0.00 0.00 0.00 86 999.2
20260510014127 65 289 0.0 0.0 0.00 0.00 0.00 85 998.9
20260510013126 65 289 0.0 0.0 0.00 0.00 0.00 85 998.9
20260510012125 66 289 0.0 0.0 0.00 0.00 0.00 84 998.8
20260510011123 67 289 0.0 0.0 0.00 0.00 0.00 83 998.7
20260510010123 67 289 0.0 0.0 0.00 0.00 0.00 81 998.6
20260510005124 68 289 0.0 0.0 0.00 0.00 0.00 80 998.5
20260510004612 69 289 0.0 0.0 0.00 0.00 0.00 79 998.4
20260510004042 69 289 0.0 0.0 0.00 0.00 0.00 78 998.3
20260510002119 70 289 0.0 0.0 0.00 0.00 0.00 77 998.3
20260510001119 70 289 0.0 0.0 0.00 0.00 0.00 75 998.4
20260510000117 71 289 0.0 2.6 0.00 0.00 0.00 74 998.0
20260509235115 71 291 0.0 1.7 0.00 0.00 0.00 73 998.1
20260509234117 72 292 0.0 2.6 0.00 0.00 0.00 72 998.1
20260509233113 72 297 0.9 3.5 0.00 0.00 0.00 71 997.8
20260509232112 73 254 1.7 6.1 0.00 0.00 0.00 70 997.8
20260509231113 73 272 0.9 3.5 0.00 0.00 0.00 70 997.8
20260509230114 73 287 0.9 3.5 0.00 0.00 0.00 69 997.6
20260509225111 73 299 1.7 6.1 0.00 0.00 0.00 69 997.5
20260509224113 74 247 1.7 4.3 0.00 0.00 0.00 68 997.4
20260509223610 74 218 1.7 5.2 0.00 0.00 0.00 68 997.5
20260509222555 74 258 1.7 6.1 0.00 0.00 0.00 68 997.4
20260509221109 74 268 2.6 7.0 0.00 0.00 0.00 67 997.8
20260509220108 74 262 1.7 5.2 0.00 0.00 0.00 68 997.8
20260509215109 74 309 1.7 7.0 0.00 0.00 0.00 67 997.7
20260509214558 74 298 1.7 6.1 0.00 0.00 0.00 66 997.6
20260509213109 74 303 1.7 7.0 0.00 0.00 0.00 66 997.6
20260509212110 74 249 1.7 6.1 0.00 0.00 0.00 66 997.5
20260509211109 74 282 2.6 7.0 0.00 0.00 0.00 66 997.5
20260509210109 74 295 2.6 7.0 0.00 0.00 0.00 66 997.4
20260509205109 74 300 1.7 6.1 0.00 0.00 0.00 67 997.4
20260509204109 73 265 0.9 3.5 0.00 0.00 0.00 68 997.5
20260509203552 73 262 1.7 4.3 0.00 0.00 0.00 68 997.4
20260509202110 73 237 2.6 5.2 0.00 0.00 0.00 68 997.6
20260509201110 73 243 1.7 5.2 0.00 0.00 0.00 67 997.5
20260509200111 73 270 0.9 3.5 0.00 0.00 0.00 67 997.6
20260509195108 72 268 2.6 7.8 0.00 0.00 0.00 69 997.9
20260509194556 72 274 2.6 7.0 0.00 0.00 0.00 68 998.0
20260509193110 72 168 1.7 7.0 0.00 0.00 0.00 67 998.1
20260509192109 73 247 1.7 6.1 0.00 0.00 0.00 67 998.3
20260509191110 73 258 1.7 7.0 0.00 0.00 0.00 66 998.3
20260509190105 74 264 3.5 12.2 0.00 0.00 0.00 62 998.1
20260509190026 76 328 2.6 7.8 0.00 0.00 0.00 59 998.2